STARLINK-37271, 68722

Orbit data source: Space-Track

STARLINK-37271, 68722 is a payload satellite owned by SpaceX/Seattle (US) in LEO that was launched on Tue, 14 Apr 2026 UTC via an FALCON 9 launch vehicle from the Air Force Eastern Test Range (AFETR). Payload-class satellites include a variety of spacecraft equipped with specific instruments for various scientific and technological missions. These include communications satellites like Starlink; space stations such as the ISS; scientific satellites like the Hubble; Earth observation satellites from companies like Planet Labs, Umbra, and HawkEye 360; GPS; miniature CubeSats for education and research; and military/defense satellites.

Loading next visibility...
Identifier
68722, 2026-081Z
Orbit
LEO
Country
Flag of USUS
Related business
Manufacturer
SpaceX/Seattle
Mission
Operational spacecraft
Bus & Motor
STARLINK V2MO, Unknown motor
Mass
575 kg wet, ~530 kg dry
Launch date (UTC)
2026-04-14 (2 months ago)
Launch vehicle
FALCON 9
Launch site
Air Force Eastern Test Range (AFETR)
Object type
Payload
Rocket body
Debris
Shape & HBR
Unknown shape, 14.5 m
Radar Cross Section
Large (>1 m²)

Expand to show TLE details & history
Last TLE update: 1 day ago

TLE from 1 day ago
0 STARLINK-37271
1 68722U 26081Z   26170.69771292 -.00028848  00000-0 -84592-3 0  9994
2 68722  53.1599 279.3479 0000922  63.2875 296.8221 15.34400613 10372
Epoch: 2026-06-19T16:44Z
TLE epoch observation values (Epoch: 2026-06-19T16:44:42.396Z)
Latitude
-0.00008°
Longitude
120.24822°
Altitude
463.318 km
Speed
7.636 km/s
True Right ascension
18h 37m 23s
True Declination
0° 00' 00"
Sunlit
Object was in full shadow at epoch
Visualization orbit readout
Latitude
Unknown
Longitude
Unknown
Altitude
Unknown
Speed
Unknown
Apparent Right ascension
Unknown
Apparent Declination
Unknown
Sunlit
N/A
Visualization observer readout
Local Sidereal Time
08:33:30
Azimuth
Unknown
Elevation
Unknown
Doppler factor
Unknown
Orbital elements
Apogee altitude
463.589 km
Perigee altitude
462.328 km
Semi-major axis
6,841.095 km
Eccentricity
0.00009
Inclination
53.1599°
RAAN
279.3479°
Arg. of periapsis
63.2875°
True anomaly
296.81267°
Mean anomaly
296.8221°
Eccentric anomaly
296.81739°
Mean motion
3.83579 °/min
Orbital period
93.85 mins
BSTAR
-0.00084592
Loading maneuver chart data...
Computing Atmospheric mass density...
Loading historical data...
Loading historical data...
Loading historical data...
Loading historical data...
Loading historical data...
Loading historical data...
Loading historical data...

Documentation

Showing up to 5 results
|